Manchester, NH

8:21 AM EST on February 11, 2016 (GMT -0500)
Manchester

Weather History for KMHT - July, 2013

Change the Weather History Date:

Monday, July 22, 2013

  Actual Average Record
Temperature  
Mean Temperature 73 °F -  
Max Temperature 81 °F 83 °F 102 °F (2011)
Min Temperature 66 °F 63 °F 43 °F (1950)
Degree Days  
Heating Degree Days 0    
Cooling Degree Days 8    
Growing Degree Days 23 (Base 50)    
Moisture  
Dew Point 66 °F    
Average Humidity 84    
Maximum Humidity 100    
Minimum Humidity 62    
Precipitation  
Precipitation 0.00 in 0.14 in 2.30 in (1988)
Month to date precipitation 2.63  
Year to date precipitation 24.46  
Snow  
Snow 0.00 in - - ()
Month to date snowfall  
Since 1 July snowfall  
Snow Depth -    
Sea Level Pressure  
Sea Level Pressure 29.99 in    
Wind  
Wind Speed 3 mph (ENE)    
Max Wind Speed 10 mph    
Max Gust Speed -    
Visibility 7 miles    
Events      
T = Trace of Precipitation, MM = Missing Value Source: NWS Daily Summary

Daily Weather History Graph

Daily Weather History Graph

Search for Another Location

Airport or City:

Trip Planner

Search our weather history database for the weather conditions in past years. The results will help you decide how hot, cold, wet, or windy it might be!

Date:

Astronomy

Jul. 22, 2013 Rise Set
Actual Time 5:26 AM EDT 8:16 PM EDT
Civil Twilight 4:53 AM EDT 8:50 PM EDT
Nautical Twilight 4:11 AM EDT 9:32 PM EDT
Astronomical Twilight 3:22 AM EDT 10:20 PM EDT
Moon 7:58 PM EDT (7/22) 5:21 AM EDT (7/22)
Length of Visible Light 15h 56m
Length of Day
14h 49m
Full, 100% of the Moon is Illuminated
Jul 22
Full
Jul 22
Full
Jul 29
Last Quarter
Aug 6
New
Aug 14
First Quarter

Hourly Weather History & Observations

Time (EDT) Temp. Heat Index Dew Point Humidity Pressure Visibility Wind Dir Wind Speed Gust Speed Precip Events Conditions
12:53 AM 68.0 °F - 64.9 °F 90% 30.01 in 10.0 mi Calm Calm - N/A   Clear
1:53 AM 66.9 °F - 64.0 °F 90% 30.01 in 10.0 mi Calm Calm - N/A   Mostly Cloudy
2:21 AM 66.2 °F - 66.2 °F 100% 29.98 in 1.0 mi Calm Calm - N/A   Overcast
2:53 AM 66.9 °F - 66.0 °F 97% 30.00 in 1.0 mi East 3.5 mph - N/A   Overcast
3:53 AM 66.9 °F - 66.0 °F 97% 30.00 in 1.0 mi NNE 3.5 mph - N/A   Overcast
4:53 AM 68.0 °F - 66.0 °F 93% 30.01 in 1.5 mi Variable 3.5 mph - N/A   Overcast
5:53 AM 68.0 °F - 66.0 °F 93% 30.02 in 1.5 mi ENE 3.5 mph - N/A   Overcast
5:55 AM 68.0 °F - 66.2 °F 94% 29.99 in 3.0 mi Calm Calm - N/A   Overcast
6:46 AM 68.0 °F - 66.2 °F 94% 29.99 in 4.0 mi NE 5.8 mph - N/A   Overcast
6:53 AM 68.0 °F - 66.0 °F 93% 30.03 in 4.0 mi ENE 4.6 mph - N/A   Overcast
7:14 AM 69.8 °F - 66.2 °F 88% 29.99 in 4.0 mi NE 3.5 mph - N/A   Overcast
7:28 AM 69.8 °F - 66.2 °F 88% 29.99 in 5.0 mi East 5.8 mph - N/A   Mostly Cloudy
7:53 AM 69.1 °F - 66.0 °F 90% 30.03 in 5.0 mi NNE 3.5 mph - N/A   Mostly Cloudy
8:53 AM 70.0 °F - 66.0 °F 87% 30.04 in 6.0 mi NNE 5.8 mph - N/A   Overcast
9:53 AM 69.1 °F - 66.0 °F 90% 30.05 in 6.0 mi East 4.6 mph - N/A   Overcast
10:53 AM 70.0 °F - 66.0 °F 87% 30.06 in 6.0 mi ENE 5.8 mph - N/A   Overcast
11:53 AM 73.0 °F - 66.9 °F 81% 30.05 in 10.0 mi North 4.6 mph - N/A   Mostly Cloudy
12:44 PM 73.4 °F - 66.2 °F 78% 29.99 in 10.0 mi North 4.6 mph - N/A   Overcast
12:53 PM 75.0 °F - 66.9 °F 76% 30.02 in 10.0 mi Variable 4.6 mph - N/A   Mostly Cloudy
1:53 PM 77.0 °F - 68.0 °F 74% 30.00 in 10.0 mi North 6.9 mph - N/A   Mostly Cloudy
2:53 PM 80.1 °F 82.3 °F 66.9 °F 64% 29.98 in 10.0 mi ESE 4.6 mph - N/A   Mostly Cloudy
3:53 PM 80.1 °F 82.1 °F 66.0 °F 62% 29.97 in 10.0 mi ENE 9.2 mph - N/A   Mostly Cloudy
4:53 PM 79.0 °F - 66.9 °F 66% 29.95 in 10.0 mi ESE 6.9 mph - N/A   Scattered Clouds
5:53 PM 77.0 °F - 66.0 °F 69% 29.95 in 10.0 mi ESE 10.4 mph - N/A   Partly Cloudy
6:53 PM 73.9 °F - 64.0 °F 71% 29.95 in 10.0 mi ESE 6.9 mph - N/A   Scattered Clouds
7:53 PM 72.0 °F - 64.0 °F 76% 29.95 in 10.0 mi ENE 5.8 mph - N/A   Clear
8:53 PM 70.0 °F - 63.0 °F 78% 29.96 in 10.0 mi NE 5.8 mph - N/A   Mostly Cloudy
9:53 PM 69.1 °F - 64.0 °F 84% 29.96 in 10.0 mi ENE 4.6 mph - N/A   Mostly Cloudy
10:53 PM 68.0 °F - 64.0 °F 87% 29.94 in 10.0 mi NNE 5.8 mph - N/A   Overcast
11:53 PM 68.0 °F - 64.0 °F 87% 29.93 in 10.0 mi East 3.5 mph - N/A   Overcast